Regional Weather Roundup
Issued by NWS

Home | Current Version | Previous Version | Graphics & Text | Print | Product List | Glossary On
Versions: 1 2 3 4 5 6 7 8 9 10 11 12 13 14 15 16 17 18 19 20 21 22 23 24 25 26 27 28 29 30 31 32 33 34 35 36 37 38 39 40 41 42 43 44 45 46 47 48 49 50
000
ASUS43 KLMK 231110
RWRKY
KENTUCKY REGIONAL WEATHER ROUNDUP
NATIONAL WEATHER SERVICE LOUISVILLE KY
700 AM EDT TUE SEP 23 2014

NOTE "FAIR" INDICATES FEW OR NO CLOUDS BELOW 12,000 FEET
WITH NO SIGNIFICANT WEATHER AND/OR OBSTRUCTIONS TO VISIBILITY.

KYZ001>023-026-027-061>063-070>075-231200-
WESTERN AND SOUTH CENTRAL KENTUCKY

CITY           SKY/WX    TMP DP  RH WIND       PRES   REMARKS
PADUCAH        CLEAR     47  43  86 CALM      30.26S
HENDERSON      CLEAR     43  39  87 CALM      30.30R
OWENSBORO      CLEAR     46  45  97 CALM      30.30R
HOPKINSVILLE   CLEAR     47  44  88 NE5       30.25S
BOWLING GREEN  CLEAR    N/A N/A N/A CALM      30.27R
GLASGOW        CLEAR     45  44  99 CALM      30.26S
$$

KYZ024-025-028>034-038-045-046-053-231200-
NORTH CENTRAL KENTUCKY

CITY           SKY/WX    TMP DP  RH WIND       PRES   REMARKS
LOUISVILLE/SDF CLEAR     50  44  80 CALM      30.30R
LOUISVILLE/LOU CLEAR     48  44  86 CALM      30.30R
FORT KNOX      CLEAR     48  43  84 NE3       30.27R
$$

KYZ035>037-039>044-047>052-055>060-089>105-231200-
NORTHEAST KENTUCKY

CITY           SKY/WX    TMP DP  RH WIND       PRES   REMARKS
LEXINGTON      CLEAR     45  40  82 NE3       30.30R
COVINGTON      CLEAR     49  44  83 NE3       30.31R
FRANKFORT      CLEAR     41  39  93 CALM      30.30R
$$

KYZ054-064>069-076>088-106>120-231200-
SOUTHEAST KENTUCKY

CITY           SKY/WX    TMP DP  RH WIND       PRES   REMARKS
JACKSON        CLEAR     48  44  86 CALM      30.28R
LONDON         CLEAR     47  43  86 N6        30.28R
SOMERSET       CLEAR     43  43 100 CALM      30.29S
MIDDLESBORO    FOG       46  46 100 CALM      30.29S VSB 3/4
MONTICELLO     SUNNY     42  42 100 CALM      30.29R
$$



USA.gov is the U.S. government's official web portal to all federal, state and local government web resources and services.